Weather Roundup
Issued by NWS

Home | Current Version | Previous Version | Text Only | Print | Product List | Glossary On
Versions: 1 2 3 4 5 6 7 8 9 10 11 12 13 14 15 16 17 18 19 20 21 22 23 24 25 26 27 28 29 30 31 32 33 34 35 36 37 38 39 40 41 42 43 44 45 46 47 48 49 50
000
NZUS93 KARX 310410
HRRWXR

CURRENT HOURLY OBSERVATIONS ACROSS
MUCH OF THE UPPER MISSISSIPPI VALLEY
NATIONAL WEATHER SERVICE LA CROSSE WI
1100 PM CDT SAT JUL 30 2016


...SOUTHEAST MINNESOTA...


CITY           SKY/WX    TMP DP  RH WIND       PRES   REMARKS
ROCHESTER      PTCLDY    67  66  97 S5        30.03R
ROCHESTER/MAYO CLOUDY    69  65  87 E5        30.03R
WINONA         PTCLDY    70  63  78 SE3       30.01S
AUSTIN         CLEAR     64  63  94 CALM      30.01S
ALBERT LEA     CLEAR     66  64  94 SE5       30.01
DODGE CENTER   CLOUDY    64  63  94 SE6       30.02S
PRESTON        CLOUDY    68  62  79 SE5       30.03S
OWATONNA       CLEAR     66  61  82 SE5       30.01S
FARIBAULT      MOCLDY    70  63  78 SE5       30.01S
$$

...ELSEWHERE IN MINNESOTA...


CITY           SKY/WX    TMP DP  RH WIND       PRES   REMARKS
MINNEAPOLIS    PTCLDY    72  65  78 SE6       29.99S
INTNL FALLS    CLEAR     62  59  90 SE5       29.98F
DULUTH         PTCLDY    62  60  93 E8        30.04R
RED WING       CLEAR     66  64  94 CALM      29.99S
REDWOOD FALLS  CLEAR     66  59  78 SE5       29.97R
MANKATO        CLEAR     70  63  78 SE6       29.99S
WORTHINGTON    CLEAR     65  61  87 SE7       30.00R
FAIRMONT       CLEAR     66  61  82 SE6       29.99S
$$

...SOUTHWEST WISCONSIN...


CITY           SKY/WX    TMP DP  RH WIND       PRES   REMARKS
LA CROSSE      CLEAR     71  65  81 E6        30.01R
PRAIRIE DU CHI   N/A     66  64  91 E3        30.01S
BOSCOBEL       CLEAR     65  64  97 CALM      30.02S
LONE ROCK      CLEAR     65  61  87 CALM      30.04R
PLATTEVILLE    CLEAR     67  64  90 E6        30.04R
FORT MC COY    CLEAR     64  63  95 CALM      30.05R
CAMP DOUGLAS   CLEAR     61  60  97 E1        30.05R
MAUSTON-NEW LI PTCLDY    62  61  96 CALM      30.04S
VIROQUA        FAIR      65  63  92 E6        30.05S
WIS DELLS      CLEAR     61  58  90 CALM      30.05S
$$

...ELSEWHERE IN WISCONSIN...


CITY           SKY/WX    TMP DP  RH WIND       PRES   REMARKS
MILWAUKEE      CLEAR     68  63  84 N7        30.02S
MADISON        MOCLDY    64  57  78 CALM      30.04R
GREEN BAY      CLEAR     59  59 100 NW5       30.06R
EAU CLAIRE     CLEAR     68  63  84 S5        30.02R
BLACK RVR FLS  FAIR      63  63 100 CALM      30.04R FOG
MEDFORD        CLEAR     62  57  84 CALM      30.08R
WAUSAU         CLEAR     61  54  77 E6        30.06S
WIS RAPIDS     PTCLDY    64  53  67 E5        30.07S
MARSHFIELD     PTCLDY    65  56  72 SE3       30.06S
RICE LAKE      CLEAR     65  61  86 SE3       30.04S
$$

...NORTHEAST IOWA...


CITY           SKY/WX    TMP DP  RH WIND       PRES   REMARKS
WATERLOO       CLEAR     67  64  90 E5        29.99R
DUBUQUE          N/A    N/A N/A N/A MISG      30.03S
DECORAH        PTCLDY    66  64  94 E5        30.02S
MASON CITY     CLOUDY    67  65  93 SW5       30.03R
CHARLES CITY   MOCLDY    68  68 100 SE7       30.02R
OELWEIN        CLEAR     66  64  94 E6        30.02S
$$

...ELSEWHERE IN IOWA...


CITY           SKY/WX    TMP DP  RH WIND       PRES   REMARKS
DES MOINES     CLEAR     75  65  70 E7        29.98R
IOWA CITY      PTCLDY    73  67  81 E3        30.01R
FORT DODGE     CLEAR     66  63  88 CALM      30.01R
MARSHALLTOWN   CLEAR     68  66  93 E3        30.00R
CEDAR RAPIDS   CLEAR     68  68 100 E5        29.99S
$$

...NORTHERN ILLINOIS...


CITY           SKY/WX    TMP DP  RH WIND       PRES   REMARKS
CHICAGO-OHARE  MOCLDY    70  65  84 VRB6      30.01R
CHICAGO-MIDWAY MOCLDY    73  64  73 NE9       30.00R
MOLINE         CLEAR     71  66  84 E3        30.00R
ROCKFORD       CLEAR     68  61  78 E3        30.04R
PEORIA         CLEAR     72  69  90 CALM      29.99S
$$

NOTE: "FAIR" INDICATES FEW OR NO CLOUDS BELOW 12,000 FEET WITH NO
SIGNIFICANT WEATHER AND/OR OBSTRUCTIONS TO VISIBILITY. WIND
SPEEDS ARE IN MILES-PER-HOUR.




USA.gov is the U.S. government's official web portal to all federal, state and local government web resources and services.